Location: Rometta
(44.2000°N, 10.0500°E)
Time: 12:07:57
(UTC+00:00)

Cosmos 2228 - Pass Details

Date: 20 January 2021
Orbit: 590 x 617 km, 82.5° (Epoch: 07 March)

Event Time Altitude Azimuth Distance (km) Brightness Sun altitude
Rises 17:03:01 0° 351° (N) 2,839 6.4 -9.0°
Reaches altitude 10° 17:05:13 10° 351° (N) 1,935 5.5 -9.3°
Maximum altitude 17:09:30 88° 268° (W) 602 3.0 -10.1°
Drops below altitude 10° 17:13:47 10° 174° (S) 1,933 5.7 -10.8°
Sets 17:15:59 0° 174° (S) 2,835 6.6 -11.2°
